User: anonymous   Login
Location: Eckley
(40.9930°N, 75.8630°W)
Time: 04:14:24
(UTC-04:00)
Language:

Cosmos 2221 Rocket - Orbit

View from above orbital plane
View from above orbital plane
View from above satellite
View from above satellite

Ground track
Ground track

The orbit data is extracted from the following two-line orbital elements,

1 22237U 92080B   14304.07946168  .00000474  00000-0  62336-4 0  4813
2 22237 082.5102 290.6741 0021555 104.5365 322.4314 14.77939410181607
Epoch (UTC): 31 October 2014 01:54:25
Eccentricity: 0.0021555
inclination: 82.5102°
perigee height: 621 km
apogee height: 651 km
right ascension of ascending node: 290.6741°
argument of perigee: 104.5365°
revolutions per day: 14.77939410
mean anomaly at epoch: 322.4314°
orbit number at epoch: 18160

The dashed part of the orbit path shows where the satellite is in the earth's shadow,  

DLR